Terug naar catalogus

STARLINK-3264

ActiefCommunicatieVLEO
NORAD 50198·PAYLOAD·🇺🇸 United States

Gelanceerd Dec 18, 2021 vanaf Vandenberg Space Force Base

Loading…

Volgende Passages (komende 24 uur)

TLE

VersSource: CelesTrak SupGP

Epoch: Sep 14, 2026, 20:38 UTC

1 50198C 21125AU  26257.86020833 -.00005132  00000+0 -25141-3 0  2571
2 50198  53.1585 105.9760 0002446 111.9409 156.8084 15.17644591    17

Volg STARLINK-3264 in realtime met AllMySat

Download on the App Store